SL-8 R/B, 19257

Orbit data source: Space-Track

SL-8 R/B, 19257 is space debris in LEO originally from a launch on Tue, 21 Jun 1988 UTC launched from the Plesetsk Missile And Space Complex (PKMTR). Debris objects in space refer to the collection of defunct objects orbiting the Earth. Examples of debris include non-operational satellites, rocket bodies, and fragments generated from explosions, collisions, or faulty payload assembly.

Loading next visibility...
Identifier
19257, 1988-053B
Orbit
LEO
Country
Flag of CISCIS
Related business
Manufacturer
Omsk Av. Zav.
Mission
Spacecraft
Bus & Motor
S3, Unknown motor
Mass
1,434 kg wet, 1,434 kg dry
Launch date (UTC)
1988-06-21 (38 years ago)
Launch vehicle
Unknown
Launch site
Plesetsk Missile And Space Complex (PKMTR)
Object type
Payload
Rocket body
Debris
Shape & HBR
Cyl, 3.3 m
Radar Cross Section
14.646 m², Large (>1 m²)

Expand to show TLE details & history
Last TLE update: 2 days ago

TLE from 2 days ago
0 SL-8 R/B
1 19257U 88053B   26171.41243301  .00000133  00000-0  51564-4 0  9995
2 19257  74.0482 283.1120 0019174  77.2470 345.2112 14.38968456991378
Epoch: 2026-06-20T09:53Z
TLE epoch observation values (Epoch: 2026-06-20T09:53:54.212Z)
Latitude
58.54731°
Longitude
-106.29333°
Altitude
758.212 km
Speed
7.488 km/s
True Right ascension
20h 43m 14s
True Declination
58° 23' 38"
Sunlit
Object was in daylight at epoch
Visualization orbit readout
Latitude
Unknown
Longitude
Unknown
Altitude
Unknown
Speed
Unknown
Apparent Right ascension
Unknown
Apparent Declination
Unknown
Sunlit
N/A
Visualization observer readout
Local Sidereal Time
23:09:10
Azimuth
Unknown
Elevation
Unknown
Doppler factor
Unknown
Orbital elements
Apogee altitude
773.214 km
Perigee altitude
745.843 km
Semi-major axis
7,137.665 km
Eccentricity
0.00192
Inclination
74.0482°
RAAN
283.112°
Arg. of periapsis
77.247°
True anomaly
345.15499°
Mean anomaly
345.2112°
Eccentric anomaly
345.18311°
Mean motion
3.59922 °/min
Orbital period
100.02 mins
BSTAR
0.000051564
Loading maneuver chart data...
Computing Atmospheric mass density...
Loading historical data...
Loading historical data...
Loading historical data...
Loading historical data...
Loading historical data...
Loading historical data...
Loading historical data...
Other satellites on launch #53 in the year 1988 (1988-06-21 UTC)

Documentation

Showing up to 5 results
|